Location: Pettit
(39.0209°N, 79.7181°W)
Time: 19:53:01
(UTC+00:00)

ACS3 Solar Sail - Pass Details

Date: 20 April 2026
Orbit: 894 x 947 km, 97.2° (Epoch: 12 May)

Event Time Altitude Azimuth Distance (km) Brightness Sun altitude
Rises 04:29:39 0° 44° (NE) 3,555 5.1 -38.2°
Enters shadow 04:32:13 - 62° (ENE) 3,112 4.6 -38.4°
Exits shadow 05:06:54 -53° 182° (S) 11,283 7.3 -39.4°
Reaches altitude 10° 06:12:18 10° 18° (NNE) 2,609 4.8 -37.9°
